Temp
4 5 5 6 7 8 8 9 8 8 9 8 9 9 9 9 9 10 10 10 10 9 9 8 7 6 6 6 5 5 5 5 5 5 5 5 5 5 4 4 4 4 4 4
4 4 6 7 7 8 8 7 7 8 8 8 9 9 9 10 10 10 10 10 9 8 8 7 6 6 5 5 5 4 4 4 4 5 5 5 5 4 4 4 4 4 4 4
4 6 6 7 7 7 8 7 7 7 8 8 8 10 10 10 10 10 9 9 8 7 7 6 6 6 5 5 4 4 4 4 4 4 4 4 4 4 4 4 4 3 3 3
5 6 6 6 6 7 6 7 7 7 7 8 7 9 10 9 10 10 9 8 7 6 6 6 5 5 5 4 4 4 4 3 4 4 3 3 3 4 3 3 3 3 3 3
5 5 5 6 6 6 6 7 7 7 7 6 5 5 9 9 9 9 8 8 7 6 5 5 5 5 4 4 4 3 3 3 3 3 3 3 3 3 3 3 3 3 3 3
5 5 5 6 6 6 6 6 6 6 5 3 6 5 7 8 9 9 8 7 6 6 5 5 4 4 4 3 3 3 3 3 3 3 3 3 3 2 2 2 2 2 3 3
5 5 5 5 6 6 6 6 5 4 4 6 5 4 9 8 8 8 7 7 6 5 5 4 4 4 3 3 3 2 2 2 2 2 2 2 2 2 1 1 2 2 3 3
5 4 5 5 5 5 5 5 5 6 7 8 5 4 7 8 7 7 7 6 6 5 4 4 3 3 3 2 2 2 2 1 1 1 1 1 1 1 1 1 1 2 2 2
4 5 5 5 5 4 4 4 5 4 4 4 6 6 7 7 7 7 6 5 4 4 3 3 3 2 2 2 2 1 1 1 1 1 1 0 0 -0 0 0 1 1 2 2
5 4 4 4 4 4 4 3 3 3 4 6 8 6 6 6 6 6 5 4 4 3 3 3 3 2 2 2 1 1 1 0 0 0 0 -0 -1 -1 -1 -0 0 0 1 1
4 4 3 3 3 1 2 2 2 3 3 6 7 6 6 5 5 5 4 4 3 2 2 3 2 2 2 1 1 0 0 -0 -1 -1 -1 -1 -1 -1 -1 -1 -1 -0 0 0
4 3 2 1 3 3 2 1 1 2 4 2 2 3 5 5 4 4 3 2 2 1 1 2 2 2 1 0 0 -0 -1 -1 -1 -1 -2 -2 -2 -2 -2 -1 -1 -1 -1 -0
3 3 2 2 2 2 2 3 2 2 2 2 4 5 4 4 3 2 2 2 2 2 1 0 0 -0 -0 -0 -1 -1 -1 -1 -2 -2 -2 -2 -3 -3 -2 -2 -2 -2 -1 -1
3 3 3 4 3 3 3 3 3 2 0 2 2 4 3 2 1 1 2 1 2 1 0 -0 -0 -0 -1 -1 -1 -2 -2 -2 -2 -3 -3 -3 -3 -3 -3 -3 -3 -3 -2 -2
2 2 2 3 2 2 1 1 2 1 3 1 3 3 3 1 0 1 1 1 0 0 0 0 -0 -1 -1 -2 -2 -2 -2 -3 -3 -3 -3 -3 -3 -4 -4 -4 -4 -3 -3 -3
1 1 1 2 2 1 1 2 1 0 0 -2 -0 0 -1 1 0 -0 -1 -1 -0 0 0 -0 -1 -1 -2 -2 -2 -3 -3 -3 -3 -4 -4 -4 -4 -4 -4 -4 -4 -4 -4 -4
-0 -0 -1 -1 -0 -0 0 2 2 0 0 -0 -1 -1 -1 -0 -1 -1 -1 -1 -1 -1 -1 -2 -2 -2 -2 -3 -3 -3 -3 -4 -4 -4 -5 -5 -5 -5 -5 -5 -5 -5 -5 -5
-1 -2 -2 -2 -2 0 1 1 1 0 0 0 0 -0 0 -1 -1 -2 -2 -1 -2 -3 -3 -3 -3 -4 -4 -4 -4 -4 -4 -4 -5 -5 -5 -5 -5 -5 -6 -6 -6 -7 -6 -6
-1 -2 -3 -2 -0 0 1 1 1 0 -1 -0 -1 -1 -1 -2 -3 -3 -3 -3 -3 -4 -4 -5 -5 -5 -5 -5 -5 -5 -6 -6 -6 -6 -6 -6 -7 -7 -7 -8 -8 -8 -8 -8
-0 -2 -4 -3 -3 -0 -0 -0 -0 -0 -2 -2 -2 -2 -2 -3 -4 -5 -5 -4 -4 -5 -5 -5 -6 -6 -6 -6 -6 -6 -7 -7 -7 -7 -8 -8 -9 -9 -9 -9 -9 -9 -9 -9
-1 -2 -4 -4 -3 -2 -2 -2 -2 -3 -3 -3 -3 -3 -4 -4 -5 -5 -5 -6 -5 -5 -6 -6 -6 -6 -7 -7 -7 -8 -8 -8 -9 -8 -9 -9 -9 -9 -10 -10 -10 -10 -10 -10
-2 -3 -4 -4 -4 -4 -3 -3 -3 -3 -3 -4 -5 -5 -6 -6 -6 -6 -6 -6 -6 -6 -7 -7 -7 -7 -8 -8 -8 -8 -9 -10 -9 -10 -10 -10 -10 -10 -10 -11 -11 -11 -11 -11
-4 -3 -2 -3 -3 -3 -3 -3 -4 -5 -5 -5 -6 -7 -7 -7 -7 -7 -7 -7 -8 -8 -8 -8 -8 -8 -9 -10 -10 -10 -11 -11 -11 -11 -11 -11 -11 -11 -12 -12 -12 -12 -12 -12
-4 -4 -4 -4 -4 -4 -4 -4 -5 -6 -7 -7 -7 -8 -8 -8 -9 -9 -9 -10 -10 -10 -10 -10 -11 -11 -11 -11 -11 -11 -11 -12 -12 -12 -12 -12 -13 -12 -13 -13 -13 -13 -13 -13
-5 -5 -5 -5 -5 -5 -6 -6 -7 -7 -8 -8 -9 -9 -10 -10 -10 -11 -11 -11 -11 -12 -12 -12 -12 -12 -12 -12 -13 -13 -12 -13 -13 -13 -13 -13 -13 -13 -13 -13 -13 -13 -13 -13
-6 -6 -6 -6 -6 -6 -7 -7 -8 -9 -9 -10 -10 -10 -11 -11 -11 -12 -12 -13 -13 -13 -13 -13 -13 -13 -13 -13 -13 -14 -14 -14 -14 -14 -13 -14 -14 -14 -14 -14 -13 -13 -14 -14
Height
3113 3118 3119 3125 3126 3128 3132 3136 3138 3136 3138 3139 3138 3137 3138 3137 3136 3136 3135 3133 3132 3130 3129 3128 3127 3126 3126 3126 3126 3126 3126 3125 3124 3122 3120 3118 3116 3114 3112 3110 3108 3107 3105 3103
3115 3117 3118 3122 3125 3128 3131 3134 3135 3134 3135 3136 3135 3133 3134 3134 3132 3131 3129 3127 3126 3125 3124 3124 3123 3124 3123 3123 3123 3124 3124 3123 3122 3120 3119 3117 3115 3113 3110 3108 3106 3104 3102 3100
3115 3116 3119 3122 3125 3127 3129 3132 3131 3132 3132 3132 3131 3128 3127 3128 3128 3127 3125 3124 3122 3121 3120 3120 3120 3121 3121 3120 3121 3121 3121 3120 3120 3119 3117 3115 3113 3111 3108 3106 3103 3101 3099 3096
3115 3117 3119 3121 3124 3127 3128 3129 3129 3130 3131 3132 3131 3128 3125 3123 3122 3121 3121 3120 3119 3118 3118 3118 3118 3118 3118 3118 3118 3118 3119 3118 3117 3116 3114 3112 3110 3108 3105 3103 3100 3098 3095 3092
3116 3116 3118 3121 3123 3125 3126 3127 3128 3128 3128 3129 3128 3129 3121 3119 3117 3117 3117 3116 3115 3115 3115 3115 3115 3115 3116 3116 3115 3116 3116 3116 3114 3113 3111 3109 3106 3104 3101 3099 3096 3093 3090 3088
3115 3117 3119 3121 3123 3124 3125 3126 3126 3125 3126 3127 3124 3125 3118 3117 3115 3114 3114 3113 3113 3113 3113 3113 3113 3113 3113 3113 3113 3114 3113 3112 3111 3109 3107 3104 3102 3100 3098 3095 3093 3090 3086 3083
3115 3117 3119 3121 3122 3123 3124 3124 3125 3126 3125 3121 3121 3121 3115 3112 3112 3112 3112 3111 3110 3111 3111 3110 3110 3111 3111 3111 3111 3111 3110 3109 3107 3105 3102 3100 3098 3096 3094 3091 3089 3085 3082 3078
3116 3119 3118 3119 3120 3121 3121 3124 3124 3123 3119 3118 3119 3114 3109 3109 3109 3108 3108 3108 3108 3108 3108 3108 3108 3109 3109 3108 3108 3107 3106 3104 3103 3100 3098 3095 3093 3091 3089 3087 3084 3081 3077 3074
3115 3115 3115 3117 3118 3120 3120 3121 3122 3121 3120 3119 3112 3109 3108 3106 3106 3105 3105 3105 3105 3105 3106 3106 3106 3105 3105 3105 3104 3103 3101 3100 3098 3096 3093 3091 3088 3086 3084 3082 3079 3075 3072 3068
3113 3114 3113 3114 3116 3117 3118 3120 3121 3120 3119 3113 3106 3107 3106 3105 3105 3104 3104 3104 3105 3105 3105 3104 3103 3103 3102 3101 3099 3098 3096 3095 3093 3092 3089 3086 3084 3081 3079 3077 3074 3071 3067 3063
3112 3113 3114 3113 3113 3114 3116 3117 3118 3119 3118 3113 3106 3106 3105 3105 3105 3104 3103 3103 3103 3102 3102 3100 3099 3098 3097 3096 3094 3093 3091 3090 3088 3086 3084 3081 3079 3077 3075 3072 3069 3066 3062 3059
3111 3111 3112 3112 3111 3111 3112 3113 3115 3117 3115 3115 3114 3107 3104 3102 3101 3101 3100 3098 3097 3097 3097 3096 3094 3093 3092 3090 3089 3088 3086 3085 3083 3081 3078 3076 3074 3071 3069 3066 3062 3059 3056 3052
3110 3110 3112 3110 3111 3109 3109 3109 3111 3111 3112 3110 3112 3106 3102 3101 3100 3098 3096 3096 3094 3091 3090 3088 3087 3086 3086 3084 3083 3082 3081 3079 3077 3075 3073 3070 3068 3065 3062 3059 3055 3051 3048 3045
3109 3108 3108 3107 3106 3105 3105 3105 3105 3106 3106 3103 3100 3099 3100 3099 3096 3092 3090 3088 3087 3085 3083 3082 3080 3079 3078 3077 3076 3075 3074 3072 3071 3068 3066 3063 3061 3058 3054 3051 3048 3044 3041 3037
3107 3105 3104 3104 3103 3101 3100 3100 3099 3097 3096 3096 3092 3095 3096 3093 3087 3086 3083 3081 3080 3078 3077 3075 3073 3072 3071 3070 3069 3068 3067 3065 3063 3060 3058 3055 3052 3049 3046 3043 3040 3037 3033 3030
3103 3101 3100 3098 3097 3096 3093 3093 3093 3091 3090 3088 3088 3086 3087 3082 3079 3079 3077 3075 3074 3072 3070 3069 3067 3066 3064 3063 3062 3061 3060 3058 3055 3053 3050 3047 3045 3041 3037 3034 3031 3027 3024 3020
3101 3100 3098 3095 3093 3091 3087 3082 3081 3081 3082 3082 3081 3082 3078 3076 3074 3073 3070 3069 3067 3065 3064 3063 3061 3060 3059 3057 3055 3054 3052 3050 3047 3044 3042 3038 3035 3032 3028 3025 3021 3017 3014 3010
3097 3098 3098 3095 3093 3088 3079 3078 3077 3077 3076 3076 3076 3073 3072 3071 3069 3066 3064 3063 3061 3060 3059 3058 3056 3055 3053 3051 3049 3046 3044 3041 3038 3034 3031 3028 3025 3021 3017 3013 3010 3007 3004 3001
3090 3092 3093 3091 3087 3080 3077 3074 3074 3073 3070 3071 3069 3067 3066 3066 3065 3063 3060 3057 3055 3053 3052 3051 3050 3049 3047 3044 3040 3037 3034 3030 3027 3024 3020 3017 3013 3009 3006 3002 2999 2996 2992 2990
3084 3086 3089 3087 3085 3076 3070 3070 3071 3070 3067 3064 3063 3062 3062 3062 3061 3061 3053 3053 3050 3048 3045 3042 3040 3038 3036 3033 3030 3027 3023 3019 3015 3011 3007 3004 3001 2997 2994 2991 2987 2985 2981 2979
3082 3082 3081 3082 3079 3070 3066 3065 3065 3068 3066 3059 3059 3057 3056 3056 3055 3051 3048 3045 3042 3039 3036 3033 3030 3027 3024 3021 3018 3015 3011 3007 3003 3000 2996 2993 2990 2986 2983 2979 2976 2972 2970 2967
3079 3080 3077 3076 3074 3066 3059 3060 3063 3060 3057 3055 3052 3050 3049 3047 3044 3041 3038 3035 3032 3028 3024 3021 3018 3015 3012 3009 3006 3003 3000 2997 2992 2987 2984 2982 2979 2977 2973 2969 2966 2963 2959 2955
3072 3072 3072 3071 3064 3056 3054 3053 3053 3052 3050 3047 3044 3042 3040 3037 3035 3032 3029 3026 3023 3019 3015 3011 3008 3004 3001 2998 2994 2990 2989 2985 2981 2977 2973 2970 2967 2964 2962 2957 2954 2951 2948 2944
3064 3062 3060 3061 3056 3051 3049 3049 3046 3043 3041 3039 3037 3034 3031 3028 3026 3022 3018 3016 3013 3010 3005 3002 2997 2994 2991 2989 2985 2980 2976 2973 2968 2964 2960 2957 2954 2952 2950 2947 2944 2939 2936 2933
3057 3052 3053 3048 3045 3044 3042 3040 3037 3034 3032 3030 3028 3026 3024 3020 3017 3013 3010 3006 3003 3001 2996 2992 2988 2984 2981 2978 2973 2969 2966 2962 2957 2953 2949 2945 2942 2939 2936 2934 2932 2929 2926 2923
3045 3047 3046 3039 3037 3035 3032 3031 3030 3028 3026 3023 3020 3017 3015 3013 3009 3005 3001 2998 2994 2990 2987 2981 2977 2973 2970 2965 2961 2957 2954 2950 2945 2940 2936 2933 2930 2926 2923 2920 2916 2916 2912 2909
Wind_Speed
25 18 17 18 18 14 14 13 10 12 12 15 17 19 16 19 21 21 23 25 25 25 22 20 18 16 14 12 11 10 9 10 9 10 12 13 13 13 14 13 14 16 17 19
19 15 21 21 19 14 11 9 7 11 12 14 17 21 19 21 22 23 22 23 23 22 19 16 14 12 11 11 10 10 9 9 10 13 15 16 17 18 18 18 19 19 19 19
12 17 17 18 15 13 12 7 9 8 11 15 18 21 14 11 13 20 22 22 20 18 16 14 13 12 12 11 11 10 11 12 14 16 18 19 19 21 21 21 22 22 21 20
9 16 17 15 13 11 6 10 9 8 7 6 8 9 13 17 17 17 19 17 16 15 14 13 12 12 12 11 11 12 12 14 16 19 20 21 22 22 23 23 24 24 25 25
9 17 14 13 11 10 8 7 7 9 10 12 9 6 8 15 16 14 13 14 14 14 13 12 12 12 12 12 13 13 15 17 19 20 22 22 22 23 22 22 22 23 25 25
8 14 12 10 9 8 6 6 8 10 9 4 10 8 6 9 9 11 13 13 13 13 13 12 12 12 12 13 14 15 17 19 21 21 21 22 23 22 21 20 21 22 24 25
9 11 10 10 9 8 7 4 1 2 1 2 4 6 11 14 13 12 14 15 14 13 13 12 12 12 13 14 15 17 19 20 20 21 24 25 24 23 21 21 22 23 24 25
7 5 11 11 10 6 6 6 2 4 2 2 5 8 7 8 12 15 13 13 12 12 13 13 13 13 15 16 17 19 20 19 20 23 25 25 24 22 22 22 24 26 26 25
8 6 10 9 10 9 5 7 8 4 8 4 7 9 14 13 6 9 9 9 10 11 12 12 14 15 16 17 18 19 21 20 21 23 26 25 23 22 23 24 26 27 27 26
7 2 9 10 10 11 11 6 2 4 3 4 6 6 8 7 4 4 6 6 7 9 12 13 14 16 17 19 21 22 22 23 24 25 27 24 23 23 23 25 27 29 29 27
7 7 4 9 8 7 10 10 8 6 4 3 6 1 3 5 11 12 2 7 17 19 15 16 17 19 20 23 24 24 24 25 27 28 28 25 25 25 26 29 31 32 31 30
8 4 2 8 11 12 12 10 9 5 3 4 3 10 14 13 6 6 6 17 26 26 17 18 21 24 25 26 27 28 28 28 30 30 29 28 27 28 30 33 35 35 34 32
5 5 2 5 7 13 14 15 15 15 14 11 7 4 6 5 8 15 23 29 30 31 25 25 27 27 28 29 29 29 30 31 32 31 30 30 30 30 34 38 38 36 34 33
7 10 11 7 6 8 10 12 12 16 11 14 22 20 17 17 17 22 30 24 21 23 27 29 29 28 29 29 30 30 32 33 33 32 32 33 33 35 39 41 39 38 37 35
9 10 14 16 18 19 19 19 20 26 29 18 27 20 20 19 29 29 19 23 20 21 24 25 25 26 29 30 30 32 33 34 35 35 36 36 36 38 41 42 41 40 38 37
12 11 14 19 19 21 25 26 27 29 30 30 31 33 25 28 21 19 25 22 23 25 26 25 22 22 24 26 28 31 33 34 36 38 39 40 42 43 45 45 44 43 40 37
14 13 10 7 12 14 19 19 18 25 26 22 22 16 26 26 24 28 22 22 23 20 19 16 13 13 17 22 27 30 33 36 39 41 43 45 46 47 47 46 45 41 39 38
19 14 9 9 11 6 6 9 10 12 17 17 18 22 25 25 23 21 22 22 17 11 11 16 20 21 22 26 29 33 36 40 43 45 48 49 50 50 48 45 41 37 37 37
21 17 7 6 11 19 21 20 19 17 19 19 19 20 20 19 20 21 20 18 17 18 21 22 23 25 27 31 34 37 39 44 47 51 52 49 47 47 42 40 39 37 37 35
12 18 14 8 6 5 9 11 13 18 17 18 22 23 23 22 18 13 26 24 27 30 33 37 39 41 39 38 41 42 44 47 48 48 47 46 44 44 42 40 38 35 36 37
9 11 19 18 13 15 19 20 19 10 13 19 20 21 22 24 28 32 34 36 40 43 44 41 38 38 37 39 39 41 43 44 43 44 45 45 44 43 41 41 39 40 41 42
9 7 9 10 9 13 13 14 11 19 23 27 25 27 25 26 33 35 37 38 39 40 41 40 41 40 39 40 41 41 41 41 41 41 41 40 39 40 41 41 40 38 39 40
15 20 16 13 14 23 26 31 29 30 31 30 24 27 32 32 34 36 38 40 39 40 41 41 42 43 41 39 41 42 40 39 39 42 41 41 41 40 39 41 42 41 40 41
21 26 30 27 27 31 37 34 34 33 22 27 32 35 34 36 35 35 36 37 38 39 39 39 39 39 40 38 38 40 40 42 44 44 43 43 43 43 42 43 43 44 45 47
22 27 25 29 34 38 37 32 25 29 32 33 31 31 32 33 35 35 35 35 36 38 38 37 38 38 38 38 40 42 43 44 46 46 46 47 48 49 49 49 49 50 51 49
35 33 33 34 28 24 27 31 32 31 31 31 30 30 31 31 30 31 34 36 39 40 39 38 38 39 42 44 46 48 49 51 52 55 54 52 52 50 48 48 49 48 48 48
Wind_Direction
165 172 178 176 183 187 177 203 211 236 252 264 268 271 274 278 285 286 285 287 285 282 287 282 277 274 271 269 269 275 284 303 317 328 334 334 334 327 319 314 309 306 304 304
164 184 183 186 188 193 190 191 208 249 261 273 279 281 282 277 279 282 281 280 280 281 282 276 269 265 262 258 257 266 280 288 299 310 316 321 322 321 319 317 314 311 311 312
182 188 183 182 190 198 208 203 232 242 279 286 295 299 285 283 277 280 275 276 278 278 274 268 262 259 254 250 255 264 274 280 292 303 311 315 317 316 315 315 313 311 311 310
185 184 181 183 193 197 222 229 247 264 286 286 298 292 290 290 285 278 281 280 277 270 263 256 252 251 250 252 257 266 273 283 294 304 311 315 316 315 312 310 308 307 305 304
187 177 178 187 195 201 225 238 258 273 280 289 267 256 270 278 282 287 281 276 270 265 260 255 251 250 251 255 263 271 277 288 299 306 310 313 315 315 315 313 311 311 311 309
189 181 187 197 202 213 230 252 279 281 273 244 233 239 269 247 270 283 287 280 273 264 260 257 255 255 256 260 265 271 281 293 301 306 311 314 313 312 311 312 314 315 313 310
163 184 199 201 205 215 223 238 295 294 210 281 224 243 249 259 269 282 286 284 277 265 263 261 260 261 262 265 270 279 288 294 301 309 313 313 310 307 306 308 314 317 316 312
176 194 204 210 212 214 220 203 228 260 253 15 268 241 256 266 277 287 279 276 273 267 266 266 266 267 269 271 277 283 288 294 302 310 312 308 304 302 304 308 316 320 319 316
191 224 212 219 220 213 220 219 239 246 276 267 237 264 268 275 277 292 279 275 270 271 276 272 269 268 270 274 276 280 284 289 297 307 309 304 301 303 307 311 319 324 322 318
204 227 219 216 220 223 218 213 208 220 263 253 231 256 247 289 309 328 305 297 319 328 316 294 279 274 270 272 274 279 283 289 296 304 306 300 300 304 310 316 321 324 322 317
213 224 261 230 231 230 232 231 227 229 248 287 304 132 288 287 300 307 252 326 320 317 309 286 274 267 271 274 273 276 281 289 296 302 305 301 305 308 313 318 323 325 323 319
225 232 244 234 262 247 240 219 212 231 194 245 287 281 294 279 249 196 294 309 309 308 288 277 274 275 277 277 277 278 281 287 296 301 305 305 307 309 314 319 323 325 323 319
224 228 225 297 270 251 247 251 240 235 246 242 262 260 281 254 280 288 292 297 295 292 277 272 276 274 275 276 277 279 282 286 294 298 304 304 305 309 315 320 321 321 320 316
244 240 228 259 244 260 252 252 239 226 223 244 239 261 271 291 287 280 291 296 300 288 284 281 281 275 270 274 276 279 283 287 294 298 302 303 304 308 314 318 319 319 317 312
253 261 258 261 267 272 267 264 261 249 265 245 271 266 269 283 275 290 286 294 288 291 289 287 286 278 273 273 275 279 284 288 292 295 297 297 298 302 309 313 314 313 311 307
265 269 284 288 280 278 277 272 263 259 263 260 268 276 279 279 275 273 290 287 289 292 287 284 283 280 274 270 272 278 282 285 288 291 292 295 297 301 306 309 311 310 306 301
266 270 286 271 282 292 287 277 267 259 261 263 258 269 257 272 279 291 290 290 295 291 283 279 284 289 285 278 279 279 280 283 285 287 289 292 295 299 302 305 307 304 300 297
261 266 265 281 305 252 274 272 272 258 254 261 268 265 271 273 278 283 287 291 288 274 270 289 293 291 285 282 281 279 280 281 283 286 289 292 297 300 303 302 302 300 295 291
255 244 251 250 253 280 290 273 268 272 274 275 269 270 273 276 280 283 275 265 261 269 284 291 294 292 287 283 279 278 280 282 286 289 291 294 297 299 299 298 299 296 291 289
245 236 224 223 258 265 267 281 287 289 278 270 269 273 279 284 274 240 262 264 266 281 290 293 297 298 292 285 284 284 285 287 288 290 292 296 295 296 296 296 297 295 292 290
243 241 232 241 252 266 264 273 271 254 268 275 279 279 284 286 285 283 283 289 292 296 298 300 299 298 295 292 289 287 284 287 288 286 288 292 292 294 294 295 294 293 293 292
250 246 229 229 241 265 258 258 251 274 282 283 276 289 285 286 293 296 299 300 301 301 302 302 301 300 299 296 293 291 289 289 288 288 291 290 289 290 292 292 291 289 289 289
258 241 259 233 255 269 280 283 290 287 279 282 281 288 297 299 299 301 300 299 300 300 300 300 298 296 295 295 296 295 294 292 290 293 292 290 291 291 293 292 292 290 289 289
263 260 256 258 267 267 273 281 287 284 272 284 295 300 303 305 305 302 301 302 302 301 302 302 300 300 299 299 296 294 294 294 292 291 290 290 290 290 291 292 293 295 295 295
258 262 267 261 266 275 278 279 277 293 300 301 301 302 303 302 303 305 305 306 308 307 307 306 303 301 296 293 291 290 290 290 289 291 291 292 293 294 294 294 294 295 294 297
271 277 270 272 273 266 276 286 295 296 295 298 300 302 305 304 303 305 310 310 311 309 306 302 299 298 298 295 292 290 291 291 292 294 293 295 296 297 298 298 297 296 296 295